[[{"header":{"parameterUnit":"m.s-1","parameterCategory":1,"la1":30.2991,"la2":30.254,"lo1":-89.0895,"lo2":-89.0444,"dy":0.0017,"dx":0.0017,"nx":28,"ny":28,"refTime":"2023-09-30T09:00:00:Z","depth":0,"parameterNumber":2,"parameterNumberName":"U-component_of_WINDS"},"data":[0,0,0,0,0,0,0,0,0,0,0,0,0,0,0,0,0,0,0,0,0,0,0,0,0,0,0,0,0,0,0,0,0,0,0,0,0,0,0,0,0,0,0,0,0,0,0,0,0,0,0,0,0,0,0,0,0,0,-4.3159,-4.3159,0,-4.3151,-4.315,-4.315,-4.2986,-4.2981,-4.2977,-4.2973,-4.2965,-4.2969,-4.2973,0,0,0,0,0,0,0,0,0,0,0,0,0,-4.3034,-4.3037,-4.3159,-4.3159,-4.3159,-4.3151,-4.315,-4.315,-4.2986,-4.2981,-4.2976,-4.2971,-4.2964,-4.2968,-4.2973,0,0,0,0,0,0,0,0,0,0,0,0,0,-4.3063,-4.3038,-4.3159,-4.3076,-4.3068,-4.3151,-4.315,-4.315,-4.2987,-4.2981,-4.2975,-4.2969,-4.2963,-4.2968,-4.2974,-4.3135,0,0,-4.2991,-4.2993,0,0,0,0,0,0,0,0,-4.3062,-4.3068,-4.3088,-4.3082,-4.3073,-4.3063,-4.3103,-4.3145,-4.2989,-4.3018,-4.2973,-4.2966,-4.3003,-4.3005,-4.3017,-4.3135,-4.3134,-4.2991,-4.2994,-4.2997,-4.2998,0,0,0,0,0,0,0,-4.306,-4.3067,-4.3155,-4.3089,-4.308,-4.3039,-4.3036,-4.311,-4.3046,-4.3015,-4.3003,-4.3004,-4.2998,-4.3012,-4.3016,-4.3134,-4.2991,-4.2996,-4.2999,-4.3002,-4.3384,-4.339,0,0,0,0,0,0,-4.3069,-4.3067,-4.3156,-4.3155,-4.3052,-4.3047,-4.3044,-4.3072,-4.3045,-4.3035,-4.301,-4.2997,-4.3006,-4.3009,-4.3015,-4.3201,-4.2997,-4.3002,-4.3005,-4.3377,-4.3386,-4.3393,0,0,0,0,0,0,-4.3067,-4.3079,-4.3156,-4.3108,-4.3115,-4.3056,-4.3089,-4.3076,-4.309,-4.3041,-4.3029,-4.3036,-4.3001,-4.3007,-4.3106,-4.3199,-4.3005,-4.301,-4.3369,-4.338,-4.3389,-4.3577,0,0,0,0,0,0,-4.3064,-4.3079,-4.3139,-4.311,-4.3118,-4.3248,-4.3095,-4.308,-4.31,-4.3083,-4.3062,-4.3053,-4.2996,-4.3099,-4.3112,-4.3203,-4.3014,-4.3361,-4.3374,-4.3386,-4.3562,-4.3592,-4.3618,0,0,0,0,0,-4.306,-4.3192,-4.3143,-4.3155,-4.3192,-4.3253,-4.3258,-4.3189,-4.3108,-4.3168,-4.3137,-4.3054,-4.3187,-4.311,-4.3124,-4.3218,-4.3354,-4.337,-4.3385,-4.355,-4.3586,-4.3617,0,0,0,0,0,0,-4.3233,-4.3187,-4.3132,-4.3258,-4.3261,-4.3226,-4.3299,-4.3231,-4.3256,-4.3239,-4.3154,-4.3151,-4.3264,-4.3251,-4.3166,-4.3373,-4.3256,-4.3275,-4.3377,-4.3411,-4.3439,-4.3439,-4.3019,0,0,0,0,0,-4.3287,-4.334,-4.3297,-4.3413,-4.3417,-4.3359,-4.3383,-4.333,-4.333,-4.333,-4.3306,-4.3309,-4.3351,-4.3381,-4.3417,-4.356,-4.3553,-4.3632,-4.366,-4.3683,-4.37,-4.3775,-4.3809,-4.3443,-4.3443,-4.3443,0,0,-4.3396,-4.3378,-4.3417,-4.3447,-4.3443,-4.3501,-4.3361,-4.3427,-4.3469,-4.334,-4.3432,-4.3415,-4.3413,-4.3535,-4.3588,-4.3528,-4.38,-4.3703,-4.3722,-4.3725,-4.3794,-4.3829,-4.386,-4.3454,-4.3452,-4.345,0,0,-4.3625,-4.3617,-4.3712,-4.3712,-4.3707,-4.3668,-4.3692,-4.3667,-4.365,-4.3742,-4.3646,-4.3695,-4.377,-4.3772,-4.3784,-4.4017,-4.3941,-4.4031,-4.4176,-4.425,-4.4279,-4.4304,-4.4387,-4.4418,-4.4048,-4.4049,-4.4049,0,-4.3762,-4.3845,-4.377,-4.3844,-4.386,-4.3747,-4.3843,-4.3846,-4.3855,-4.3869,-4.3802,-4.3894,-4.3884,-4.4005,-4.4063,-4.4076,-4.41,-4.4032,-4.4281,-4.4306,-4.4328,-4.4406,-4.4437,-4.4059,-4.4058,-4.4057,-4.4056,0,-4.4013,-4.4072,-4.415,-4.4161,-4.4186,-4.4272,-4.421,-4.4245,-4.4192,-4.416,-4.4255,-4.424,-4.4271,-4.4296,-4.4244,-4.4411,-4.4374,-4.4296,-4.4176,-4.4375,-4.4446,-4.4476,-4.4075,-4.4071,-4.4068,-4.4065,0,0,-4.4348,-4.4319,-4.4348,-4.4352,-4.434,-4.4385,-4.4465,-4.4496,-4.4528,-4.4538,-4.4603,-4.467,-4.4598,-4.4611,-4.4559,-4.4624,-4.4809,-4.4537,-4.4536,-4.4588,-4.4992,-4.505,-4.5085,-4.476,-4.4765,-4.477,-4.4992,0,-4.4569,-4.4703,-4.464,-4.4782,-4.4836,-4.473,-4.48,-4.4801,-4.4774,-4.4816,-4.4786,-4.4835,-4.4736,-4.4743,-4.4804,-4.4774,-4.4889,-4.4757,-4.4819,-4.4822,-4.4822,-4.5123,-4.5184,-4.5394,-4.5019,-4.5024,-4.5027,0,-4.4843,-4.4865,-4.5013,-4.4992,-4.5012,-4.5077,-4.51,-4.5142,-4.5141,-4.5117,-4.5133,-4.5066,-4.5144,-4.5027,-4.5133,-4.5045,-4.5067,-4.5057,-4.5064,-4.5065,-4.4936,-4.5132,-4.5459,-4.549,-4.5071,-4.5067,-4.5064,0,-4.5072,-4.5139,-4.5236,-4.5243,-4.5221,-4.5269,-4.5262,-4.5255,-4.5278,-4.5299,-4.5313,-4.5344,-4.5361,-4.5386,-4.5329,-4.525,-4.5444,-4.5322,-4.5426,-4.5427,-4.5469,-4.5467,-4.5804,-4.5487,-4.5486,-4.5486,-4.5485,0,-4.5324,-4.5418,-4.5339,-4.5398,-4.5501,-4.5428,-4.5532,-4.5514,-4.5509,-4.5563,-4.5475,-4.5528,-4.545,-4.5496,-4.5453,-4.5547,-4.5556,-4.5538,-4.5525,-4.5546,-4.5548,-4.5557,-4.5541,-4.5494,-4.5492,-4.5491,-4.5489,0,-4.5596,-4.5546,-4.5645,-4.5617,-4.5612,-4.569,-4.5665,-4.572,-4.5687,-4.5758,-4.577,-4.572,-4.5769,-4.5716,-4.5762,-4.5732,-4.586,-4.5826,-4.586,-4.585,-4.5956,-4.5947,-4.631,-4.6353,-4.601,-4.6013,-4.6016,0,-4.5759,-4.5829,-4.5809,-4.5839,-4.5838,-4.5888,-4.5911,-4.5843,-4.5871,-4.5876,-4.593,-4.5973,-4.6002,-4.6087,-4.6054,-4.6089,-4.6055,-4.618,-4.6059,-4.6078,-4.6056,-4.6052,-4.6058,-4.6204,-4.6208,-4.6211,-4.6214,0,-4.6054,-4.6026,-4.6063,-4.6092,-4.6123,-4.6142,-4.6155,-4.6185,-4.6114,-4.6151,-4.62,-4.6224,-4.6271,-4.6314,-4.634,-4.6333,-4.6263,-4.6253,-4.6278,-4.6299,-4.6315,-4.6307,-4.5926,-4.6244,-4.6241,-4.6239,-4.6237,-4.6236,-4.6275,-4.6333,-4.6328,-4.6372,-4.6375,-4.639,-4.6439,-4.6414,-4.6454,-4.6487,-4.6445,-4.6506,-4.6505,-4.6532,-4.6534,-4.6582,-4.6528,-4.6566,-4.6575,-4.6585,-4.66,-4.631,-4.6586,-4.6585,-4.6585,-4.6584,-4.6583,0,-4.6564,-4.6556,-4.6598,-4.6619,-4.6655,-4.6586,-4.6597,-4.6631,-4.6687,-4.6691,-4.6723,-4.6781,-4.6823,-4.6795,-4.683,-4.6874,-4.6843,-4.6886,-4.6881,-4.6881,-4.6646,-4.662,-4.691,-4.691,-4.691,-4.691,-4.691,-4.691,-4.6718,-4.6812,-4.6785,-4.6879,-4.6871,-4.693,-4.6943,-4.6956,-4.6959,-4.7028,-4.7062,-4.7044,-4.7036,-4.707,-4.7106,-4.7097,-4.7114,-4.7169,-4.7148,-4.6929,-4.6897,-4.6866,-4.6841,-4.7173,-4.7173,-4.7378,-4.7379,-4.7381]},{"header":{"parameterUnit":"m.s-1","parameterCategory":1,"la1":30.2991,"la2":30.254,"lo1":-89.0895,"lo2":-89.0444,"dy":0.0017,"dx":0.0017,"nx":28,"ny":28,"refTime":"2023-09-30T09:00:00:Z","depth":0,"parameterNumber":3,"parameterNumberName":"V-component_of_WINDS"},"data":[0,0,0,0,0,0,0,0,0,0,0,0,0,0,0,0,0,0,0,0,0,0,0,0,0,0,0,0,0,0,0,0,0,0,0,0,0,0,0,0,0,0,0,0,0,0,0,0,0,0,0,0,0,0,0,0,0,0,1.3247,1.3247,0,1.3241,1.3241,1.3241,1.3281,1.3282,1.3283,1.3284,1.3272,1.327,1.3269,0,0,0,0,0,0,0,0,0,0,0,0,0,1.3288,1.3288,1.3247,1.3247,1.3247,1.3241,1.3241,1.3241,1.3281,1.3282,1.3283,1.3285,1.3272,1.327,1.3269,0,0,0,0,0,0,0,0,0,0,0,0,0,1.3275,1.3287,1.3247,1.3266,1.3268,1.3241,1.3241,1.3241,1.328,1.3282,1.3284,1.3285,1.3273,1.3271,1.3268,1.3221,0,0,1.3262,1.3261,0,0,0,0,0,0,0,0,1.3276,1.3273,1.3263,1.3265,1.3267,1.3264,1.3251,1.3234,1.328,1.3275,1.3284,1.3286,1.3267,1.3266,1.326,1.3221,1.322,1.3262,1.3261,1.326,1.3259,0,0,0,0,0,0,0,1.3277,1.3274,1.3245,1.3263,1.3265,1.3274,1.3274,1.3248,1.3261,1.3276,1.3279,1.3278,1.3268,1.3262,1.326,1.322,1.3262,1.326,1.3259,1.3258,1.3141,1.3139,0,0,0,0,0,0,1.3276,1.3274,1.3245,1.3244,1.3276,1.3271,1.3271,1.3263,1.3262,1.3264,1.3276,1.328,1.3265,1.3263,1.326,1.3204,1.326,1.3258,1.3257,1.3143,1.3141,1.3139,0,0,0,0,0,0,1.3277,1.3273,1.3245,1.326,1.3257,1.3269,1.3259,1.3262,1.3256,1.3262,1.3264,1.3268,1.3266,1.3263,1.3231,1.3204,1.3257,1.3255,1.3145,1.3142,1.314,1.3092,0,0,0,0,0,0,1.3278,1.3273,1.3256,1.326,1.3257,1.3217,1.3257,1.326,1.3253,1.3257,1.3255,1.3256,1.3267,1.3234,1.3229,1.3202,1.3253,1.3148,1.3144,1.3141,1.3096,1.3088,1.3081,0,0,0,0,0,1.3279,1.3241,1.3255,1.3251,1.3236,1.3215,1.3213,1.3229,1.3251,1.3233,1.3237,1.3256,1.3209,1.323,1.3225,1.3197,1.3149,1.3145,1.3141,1.3099,1.309,1.3081,0,0,0,0,0,0,1.3231,1.3242,1.3257,1.322,1.3217,1.3222,1.32,1.3218,1.3207,1.3211,1.3229,1.3228,1.3192,1.3192,1.3216,1.3152,1.3183,1.3177,1.3153,1.3144,1.3136,1.3136,1.3251,0,0,0,0,0,1.3217,1.3201,1.3211,1.3177,1.3175,1.3188,1.318,1.3192,1.3189,1.3187,1.3189,1.3183,1.3167,1.3156,1.3141,1.3098,1.3097,1.3076,1.3069,1.3063,1.3056,1.3033,1.3023,1.3125,1.3125,1.3125,0,0,1.3185,1.3189,1.3178,1.3167,1.3166,1.3148,1.3186,1.3165,1.3151,1.3183,1.3153,1.3155,1.315,1.3112,1.3095,1.311,1.3029,1.3057,1.3052,1.305,1.3027,1.3018,1.3009,1.3122,1.3123,1.3123,0,0,1.3119,1.3121,1.3093,1.3093,1.3092,1.3101,1.3095,1.3098,1.3101,1.3072,1.3096,1.3079,1.3051,1.3047,1.3041,1.2976,1.2993,1.2971,1.2931,1.2907,1.2899,1.2892,1.2867,1.2859,1.2966,1.2966,1.2966,0,1.3079,1.3054,1.3076,1.3054,1.3048,1.308,1.305,1.3048,1.3041,1.3036,1.3055,1.3021,1.302,1.2981,1.2965,1.296,1.2952,1.2969,1.2899,1.2892,1.2886,1.2862,1.2853,1.2963,1.2963,1.2963,1.2964,0,1.3005,1.2988,1.2965,1.2961,1.2953,1.2927,1.2944,1.2933,1.2947,1.2954,1.2924,1.2925,1.2911,1.2904,1.2916,1.2866,1.2876,1.2897,1.2927,1.2873,1.2851,1.2843,1.2959,1.296,1.2961,1.2961,0,0,1.2904,1.2915,1.2906,1.2905,1.2908,1.2894,1.287,1.2859,1.2849,1.2844,1.2823,1.2801,1.2821,1.2814,1.2827,1.2807,1.2754,1.283,1.283,1.2814,1.2698,1.268,1.2669,1.2767,1.2765,1.2764,1.2697,0,1.2838,1.2799,1.2819,1.2777,1.276,1.2792,1.2771,1.2769,1.2776,1.2762,1.277,1.2752,1.2781,1.2777,1.2759,1.2764,1.273,1.2769,1.2745,1.2743,1.2742,1.2658,1.2639,1.2576,1.2689,1.2688,1.2687,0,1.2755,1.275,1.2706,1.2713,1.2707,1.2688,1.268,1.2667,1.2667,1.2673,1.2667,1.2685,1.2661,1.2695,1.266,1.2687,1.2679,1.268,1.2678,1.2673,1.2709,1.2649,1.2557,1.2546,1.2674,1.2675,1.2676,0,1.2683,1.2665,1.2637,1.2636,1.2644,1.2629,1.2632,1.2633,1.2626,1.2619,1.2614,1.2603,1.2597,1.2588,1.2602,1.2625,1.2565,1.26,1.2568,1.2567,1.2551,1.2551,1.2453,1.255,1.255,1.2551,1.2551,0,1.2606,1.2577,1.2605,1.2587,1.2557,1.258,1.2549,1.2554,1.2556,1.2539,1.2566,1.2548,1.257,1.2555,1.2566,1.2535,1.2533,1.2536,1.2538,1.2531,1.2531,1.2524,1.2527,1.2548,1.2549,1.2549,1.255,0,1.2519,1.2537,1.2508,1.252,1.2522,1.2498,1.2507,1.2491,1.2501,1.2479,1.2475,1.249,1.2474,1.2489,1.2472,1.248,1.2439,1.2449,1.2439,1.2441,1.2407,1.2409,1.2299,1.2285,1.2393,1.2392,1.2391,0,1.2466,1.2446,1.2456,1.2448,1.2449,1.2435,1.2429,1.2452,1.2443,1.2443,1.2425,1.2412,1.2402,1.2375,1.2383,1.2371,1.238,1.2342,1.2378,1.2372,1.2376,1.2376,1.2374,1.2333,1.2332,1.2331,1.233,0,1.2371,1.2382,1.2372,1.2366,1.2358,1.2354,1.2352,1.2343,1.2367,1.2356,1.2341,1.2334,1.2319,1.2305,1.2296,1.2297,1.2316,1.232,1.2311,1.2302,1.2297,1.2297,1.2417,1.2321,1.2322,1.2323,1.2323,1.2324,1.2298,1.2282,1.2287,1.2275,1.2277,1.2274,1.226,1.227,1.2258,1.2249,1.2264,1.2244,1.2245,1.2236,1.2235,1.2219,1.2235,1.2223,1.2219,1.2215,1.2209,1.2302,1.2218,1.2218,1.2219,1.2219,1.2219,0,1.2202,1.2208,1.2198,1.2195,1.2186,1.221,1.2209,1.2199,1.2183,1.2183,1.2174,1.2157,1.2144,1.2153,1.2142,1.2127,1.2136,1.2123,1.2123,1.2123,1.2197,1.2205,1.2117,1.2117,1.2117,1.2117,1.2117,1.2117,1.2151,1.2124,1.2136,1.2109,1.2115,1.2098,1.2095,1.2093,1.2094,1.2074,1.2064,1.2072,1.2075,1.2065,1.2054,1.2057,1.205,1.2033,1.2039,1.2107,1.2117,1.2127,1.2134,1.2032,1.2032,1.1965,1.1965,1.1964]}]]